WB4FAY-4 Weather Reports


Display with metric or nautical units.
time (UTC)temp
F
wind
direction
speed
MPH
gust
MPH
rain 1hr
in
rain 24hr
in
rain mn
in
humidity
%
barometer
mb
20260901205517 98 17 3.0 7.0 0.00 0.00 0.00 37 1018.3
20260901205017 98 0 5.0 0.0 0.00 0.00 0.00 36 1018.3
20260901204517 98 95 0.0 11.0 0.00 0.00 0.00 35 1018.3
20260901204017 98 96 0.0 5.0 0.00 0.00 0.00 35 1018.4
20260901203517 98 100 1.0 7.0 0.00 0.00 0.00 36 1018.4
20260901203017 98 100 5.0 7.0 0.00 0.00 0.00 36 1018.5
20260901202517 97 123 2.0 6.0 0.00 0.00 0.00 36 1018.5
20260901202017 97 89 0.0 7.0 0.00 0.00 0.00 38 1018.6
20260901201517 97 65 1.0 6.0 0.00 0.00 0.00 38 1018.7
20260901201017 97 68 3.0 8.0 0.00 0.00 0.00 37 1018.8
20260901200517 96 79 0.0 8.0 0.00 0.00 0.00 39 1018.8
20260901200017 96 90 4.0 8.0 0.00 0.00 0.00 40 1018.9
20260901195517 96 32 7.0 5.0 0.00 0.00 0.00 40 1019.0
20260901195017 95 69 2.0 8.0 0.00 0.00 0.00 39 1019.0
20260901194517 95 6 1.0 5.0 0.00 0.00 0.00 39 1019.0
20260901194017 95 76 0.0 7.0 0.00 0.00 0.00 40 1019.0
20260901193517 95 90 6.0 7.0 0.00 0.00 0.00 39 1019.1
20260901193018 95 86 4.0 7.0 0.00 0.00 0.00 41 1019.2
20260901192517 95 51 0.0 9.0 0.00 0.00 0.00 40 1019.2
20260901192017 95 45 0.0 5.0 0.00 0.00 0.00 40 1019.3
20260901191517 95 72 2.0 9.0 0.00 0.00 0.00 39 1019.4
20260901191017 95 83 7.0 8.0 0.00 0.00 0.00 40 1019.4
20260901190517 95 37 1.0 10.0 0.00 0.00 0.00 39 1019.4
20260901190017 95 104 3.0 5.0 0.00 0.00 0.00 39 1019.5
20260901185517 95 66 4.0 4.0 0.00 0.00 0.00 41 1019.6
20260901185017 95 73 1.0 6.0 0.00 0.00 0.00 41 1019.7
20260901184518 95 65 4.0 6.0 0.00 0.00 0.00 41 1019.7
20260901184017 95 44 0.0 6.0 0.00 0.00 0.00 40 1019.7
20260901183517 95 90 0.0 9.0 0.00 0.00 0.00 40 1019.7
20260901183017 95 78 3.0 8.0 0.00 0.00 0.00 40 1019.8
20260901182517 95 113 6.0 10.0 0.00 0.00 0.00 41 1019.9
20260901182017 95 112 7.0 6.0 0.00 0.00 0.00 41 1019.9
20260901181517 95 44 0.0 4.0 0.00 0.00 0.00 43 1019.9
20260901181017 95 86 2.0 8.0 0.00 0.00 0.00 44 1019.9
20260901180517 94 52 1.0 5.0 0.00 0.00 0.00 42 1019.9
20260901180017 95 90 4.0 7.0 0.00 0.00 0.00 42 1019.9
20260901175517 95 48 4.0 7.0 0.00 0.00 0.00 43 1020.0
20260901175018 94 47 3.0 4.0 0.00 0.00 0.00 44 1019.9
20260901174517 94 78 2.0 7.0 0.00 0.00 0.00 44 1020.0
20260901174018 94 69 5.0 8.0 0.00 0.00 0.00 44 1020.1
20260901173517 94 4 0.0 5.0 0.00 0.00 0.00 44 1020.1
20260901173022 94 150 3.0 5.0 0.00 0.00 0.00 44 1020.2
20260901172517 94 134 1.0 5.0 0.00 0.00 0.00 44 1020.2
20260901172017 93 56 0.0 4.0 0.00 0.00 0.00 45 1020.2
20260901171518 93 71 0.0 4.0 0.00 0.00 0.00 45 1020.2
20260901171017 93 100 3.0 6.0 0.00 0.00 0.00 45 1020.3
20260901170558 93 80 1.0 9.0 0.00 0.00 0.00 45 1020.4
20260901170017 93 44 0.0 5.0 0.00 0.00 0.00 47 1020.5
20260901165517 93 155 0.0 4.0 0.00 0.00 0.00 46 1020.5
20260901165017 92 89 3.0 6.0 0.00 0.00 0.00 47 1020.5
20260901164517 92 89 3.0 7.0 0.00 0.00 0.00 48 1020.5
20260901164018 91 20 4.0 1.0 0.00 0.00 0.00 48 1020.5
20260901163518 91 10 0.0 3.0 0.00 0.00 0.00 50 1020.5
20260901163018 91 83 3.0 7.0 0.00 0.00 0.00 50 1020.7
20260901162518 90 21 1.0 2.0 0.00 0.00 0.00 51 1020.7
20260901162017 90 92 0.0 5.0 0.00 0.00 0.00 51 1020.8
20260901161517 90 1 3.0 6.0 0.00 0.00 0.00 53 1020.8
20260901161017 89 332 1.0 3.0 0.00 0.00 0.00 56 1020.7
20260901160517 89 0 0.0 0.0 0.00 0.00 0.00 55 1020.8
20260901160017 89 356 0.0 3.0 0.00 0.00 0.00 53 1020.8
20260901155517 89 28 1.0 3.0 0.00 0.00 0.00 55 1020.9
20260901155017 90 34 0.0 1.0 0.00 0.00 0.00 54 1020.9
20260901154517 90 28 0.0 5.0 0.00 0.00 0.00 52 1020.9
20260901154017 90 24 1.0 2.0 0.00 0.00 0.00 55 1020.9
20260901153517 90 0 0.0 0.0 0.00 0.00 0.00 55 1020.9
20260901153017 89 13 0.0 2.0 0.00 0.00 0.00 56 1021.0
20260901152517 89 352 2.0 2.0 0.00 0.00 0.00 58 1021.0
20260901152017 89 0 0.0 0.0 0.00 0.00 0.00 57 1021.0
20260901151517 88 0 0.0 0.0 0.00 0.00 0.00 60 1021.0
20260901151017 88 52 0.0 3.0 0.00 0.00 0.00 61 1021.1
20260901150517 88 44 1.0 4.0 0.00 0.00 0.00 60 1021.1
20260901150017 88 56 2.0 3.0 0.00 0.00 0.00 62 1021.1
20260901145517 87 47 2.0 3.0 0.00 0.00 0.00 64 1021.1
20260901145018 86 17 0.0 3.0 0.00 0.00 0.00 66 1021.1
20260901144517 86 23 1.0 1.0 0.00 0.00 0.00 68 1021.1
20260901144017 85 31 0.0 3.0 0.00 0.00 0.00 68 1021.1
20260901143517 85 0 0.0 0.0 0.00 0.00 0.00 69 1021.1
20260901143017 84 0 0.0 0.0 0.00 0.00 0.00 72 1021.2
20260901142517 83 0 0.0 0.0 0.00 0.00 0.00 71 1021.2
20260901142017 83 66 0.0 1.0 0.00 0.00 0.00 72 1021.1
20260901141517 83 83 0.0 3.0 0.00 0.00 0.00 72 1021.1
20260901141017 82 86 2.0 3.0 0.00 0.00 0.00 73 1021.1
20260901140523 82 88 2.0 2.0 0.00 0.00 0.00 74 1021.1
20260901140017 82 83 0.0 3.0 0.00 0.00 0.00 74 1021.1
20260901135517 81 85 2.0 2.0 0.00 0.00 0.00 76 1021.1
20260901135017 81 65 0.0 4.0 0.00 0.00 0.00 76 1021.1
20260901134517 80 61 3.0 3.0 0.00 0.00 0.00 77 1021.1
20260901134017 80 92 0.0 3.0 0.00 0.00 0.00 78 1021.1
20260901133517 80 109 1.0 3.0 0.00 0.00 0.00 79 1021.1
20260901133018 80 110 1.0 3.0 0.00 0.00 0.00 79 1021.1
20260901132517 79 100 2.0 5.0 0.00 0.00 0.00 80 1021.2
20260901132017 79 89 3.0 8.0 0.00 0.00 0.00 80 1021.2
20260901131517 78 97 2.0 7.0 0.00 0.00 0.00 82 1021.2
20260901131017 78 89 3.0 6.0 0.00 0.00 0.00 83 1021.2
20260901130517 78 90 0.0 5.0 0.00 0.00 0.00 84 1021.1
20260901130016 78 78 2.0 5.0 0.00 0.00 0.00 84 1021.1
20260901125517 77 96 2.0 5.0 0.00 0.00 0.00 85 1021.1
20260901125017 77 95 4.0 7.0 0.00 0.00 0.00 85 1021.0
20260901124517 77 114 2.0 6.0 0.00 0.00 0.00 86 1021.0
20260901124017 77 90 2.0 7.0 0.00 0.00 0.00 86 1021.0
20260901123518 76 100 2.0 7.0 0.00 0.00 0.00 87 1021.0
20260901123017 76 92 3.0 6.0 0.00 0.00 0.00 88 1021.0
20260901122517 75 88 3.0 6.0 0.00 0.00 0.00 88 1020.9
20260901122017 75 93 4.0 4.0 0.00 0.00 0.00 89 1020.8
20260901121517 75 99 2.0 4.0 0.00 0.00 0.00 90 1020.8
20260901121017 75 103 3.0 4.0 0.00 0.00 0.00 90 1020.7
20260901120517 74 0 0.0 0.0 0.00 0.00 0.00 90 1020.7
20260901120016 74 0 0.0 0.0 0.00 0.00 0.00 91 1020.5
20260901115517 74 0 0.0 0.0 0.00 0.00 0.00 91 1020.4
20260901115017 74 0 0.0 0.0 0.00 0.00 0.00 91 1020.4
20260901114517 74 0 0.0 0.0 0.00 0.00 0.00 90 1020.3
20260901114017 74 0 0.0 0.0 0.00 0.00 0.00 90 1020.2
20260901113517 74 0 0.0 0.0 0.00 0.00 0.00 90 1020.2
20260901113017 74 0 0.0 0.0 0.00 0.00 0.00 90 1020.2
20260901112517 74 0 0.0 0.0 0.00 0.00 0.00 90 1020.1
20260901112017 74 0 0.0 0.0 0.00 0.00 0.00 90 1020.0
20260901111518 74 0 0.0 0.0 0.00 0.00 0.00 90 1020.0
20260901111017 74 0 0.0 0.0 0.00 0.00 0.00 90 1020.0
20260901110518 75 0 0.0 0.0 0.00 0.00 0.00 90 1019.9
20260901110017 74 0 0.0 0.0 0.00 0.00 0.00 90 1019.9
20260901105517 74 0 0.0 0.0 0.00 0.00 0.00 90 1019.8
20260901105017 75 0 0.0 0.0 0.00 0.00 0.00 90 1019.7
20260901104517 75 0 0.0 0.0 0.00 0.00 0.00 90 1019.7
20260901104017 75 0 0.0 0.0 0.00 0.00 0.00 90 1019.8
20260901103517 75 0 0.0 0.0 0.00 0.00 0.00 90 1019.8
20260901103017 75 0 0.0 0.0 0.00 0.00 0.00 90 1019.8
20260901102517 75 0 0.0 0.0 0.00 0.00 0.00 90 1019.7
20260901102017 75 0 0.0 0.0 0.00 0.00 0.00 90 1019.7
20260901101518 75 0 0.0 0.0 0.00 0.00 0.00 89 1019.7
20260901101017 75 0 0.0 0.0 0.00 0.00 0.00 89 1019.8
20260901100517 75 0 0.0 0.0 0.00 0.00 0.00 89 1019.8
20260901100017 75 0 0.0 0.0 0.00 0.00 0.00 89 1019.8
20260901095517 75 0 0.0 0.0 0.00 0.00 0.00 89 1019.8
20260901095017 75 0 0.0 0.0 0.00 0.00 0.00 89 1019.8
20260901094517 75 0 0.0 0.0 0.00 0.00 0.00 89 1019.8
20260901094017 75 0 0.0 0.0 0.00 0.00 0.00 89 1019.7
20260901093517 75 0 0.0 0.0 0.00 0.00 0.00 88 1019.7
20260901093017 75 0 0.0 0.0 0.00 0.00 0.00 88 1019.6
20260901092517 75 0 0.0 0.0 0.00 0.00 0.00 88 1019.5
20260901092017 75 0 0.0 0.0 0.00 0.00 0.00 88 1019.5
20260901091517 75 0 0.0 0.0 0.00 0.00 0.00 88 1019.5
20260901091017 76 0 0.0 0.0 0.00 0.00 0.00 88 1019.5
20260901090517 76 0 0.0 0.0 0.00 0.00 0.00 88 1019.5
20260901090017 76 0 0.0 0.0 0.00 0.00 0.00 87 1019.5
20260901085517 76 0 0.0 0.0 0.00 0.00 0.00 87 1019.4
20260901085017 76 0 0.0 0.0 0.00 0.00 0.00 87 1019.3
20260901084517 76 0 0.0 0.0 0.00 0.00 0.00 87 1019.3
20260901084017 76 0 0.0 0.0 0.00 0.00 0.00 87 1019.3
20260901083517 76 0 0.0 0.0 0.00 0.00 0.00 87 1019.3
20260901083016 76 0 0.0 0.0 0.00 0.00 0.00 86 1019.3
20260901082517 76 0 0.0 0.0 0.00 0.00 0.00 86 1019.3
20260901082017 77 0 0.0 0.0 0.00 0.00 0.00 86 1019.3
20260901081517 77 0 0.0 0.0 0.00 0.00 0.00 86 1019.2
20260901081017 77 0 0.0 0.0 0.00 0.00 0.00 86 1019.2
20260901080517 77 0 0.0 0.0 0.00 0.00 0.00 86 1019.2
20260901080017 77 0 0.0 0.0 0.00 0.00 0.00 86 1019.1
20260901075517 77 0 0.0 0.0 0.00 0.00 0.00 85 1019.1
20260901075018 77 0 0.0 0.0 0.00 0.00 0.00 85 1019.1
20260901074517 77 0 0.0 0.0 0.00 0.00 0.00 85 1019.1
20260901074017 77 0 0.0 0.0 0.00 0.00 0.00 85 1019.0
20260901073518 77 0 0.0 0.0 0.00 0.00 0.00 85 1019.0
20260901073017 77 0 0.0 0.0 0.00 0.00 0.00 85 1019.1
20260901072517 78 0 0.0 0.0 0.00 0.00 0.00 84 1019.0
20260901072018 77 0 0.0 0.0 0.00 0.00 0.00 84 1019.0
20260901071517 77 0 0.0 0.0 0.00 0.00 0.00 84 1019.0
20260901071017 78 0 0.0 0.0 0.00 0.00 0.00 84 1019.0
20260901070517 78 0 0.0 0.0 0.00 0.00 0.00 84 1019.0
20260901070017 78 0 0.0 0.0 0.00 0.00 0.00 84 1019.1
20260901065517 78 0 0.0 0.0 0.00 0.00 0.00 84 1019.1
20260901065017 78 0 0.0 0.0 0.00 0.00 0.00 83 1019.1
20260901064517 78 0 0.0 0.0 0.00 0.00 0.00 83 1019.1
20260901064017 78 0 0.0 0.0 0.00 0.00 0.00 83 1019.2
20260901063517 78 0 0.0 0.0 0.00 0.00 0.00 83 1019.2
20260901063017 78 0 0.0 0.0 0.00 0.00 0.00 83 1019.3
20260901062517 79 0 0.0 0.0 0.00 0.00 0.00 83 1019.3
20260901062017 78 0 0.0 0.0 0.00 0.00 0.00 83 1019.3
20260901061517 78 0 0.0 0.0 0.00 0.00 0.00 83 1019.3
20260901061017 78 0 0.0 0.0 0.00 0.00 0.00 83 1019.3
20260901060517 78 0 0.0 0.0 0.00 0.00 0.00 82 1019.4
20260901060017 78 0 0.0 0.0 0.00 0.00 0.00 82 1019.4
20260901055517 78 0 0.0 0.0 0.00 0.00 0.00 82 1019.4
20260901055017 78 0 0.0 0.0 0.00 0.00 0.00 82 1019.4
20260901054517 79 0 0.0 0.0 0.00 0.00 0.00 82 1019.4
20260901054017 79 0 0.0 0.0 0.00 0.00 0.00 82 1019.4
20260901053517 79 0 0.0 0.0 0.00 0.00 0.00 82 1019.4
20260901053017 79 0 0.0 0.0 0.00 0.00 0.00 82 1019.5
20260901052517 79 0 0.0 0.0 0.00 0.00 0.00 82 1019.5
20260901052018 79 0 0.0 0.0 0.00 0.00 0.00 82 1019.6
20260901051517 79 0 0.0 0.0 0.00 0.00 0.00 82 1019.6
20260901051018 79 0 0.0 0.0 0.00 0.00 0.00 82 1019.5
20260901050517 79 0 0.0 0.0 0.00 0.00 0.00 82 1019.4
20260901050017 79 0 0.0 0.0 0.00 0.00 0.00 82 1019.4
20260901045517 79 0 0.0 0.0 0.00 0.00 0.00 82 1019.4
20260901045017 79 0 0.0 0.0 0.00 0.00 0.00 82 1019.5
20260901044517 79 0 0.0 0.0 0.00 0.00 0.00 82 1019.5
20260901044022 79 0 0.0 0.0 0.00 0.00 0.00 81 1019.5
20260901043517 79 0 0.0 0.0 0.00 0.00 0.00 81 1019.4
20260901043017 79 0 0.0 0.0 0.00 0.00 0.00 81 1019.4
20260901042517 79 0 0.0 0.0 0.00 0.00 0.00 81 1019.5
20260901042017 79 0 0.0 0.0 0.00 0.00 0.00 81 1019.5
20260901041517 79 0 0.0 0.0 0.00 0.00 0.00 81 1019.5
20260901041018 79 0 0.0 0.0 0.00 0.00 0.00 81 1019.5
20260901040517 79 0 0.0 0.0 0.00 0.00 0.00 81 1019.5
20260901040017 79 0 0.0 0.0 0.00 0.00 0.00 81 1019.5
20260901035518 79 0 0.0 0.0 0.00 0.00 0.00 81 1019.6
20260901035017 80 0 0.0 0.0 0.00 0.00 0.00 81 1019.6
20260901034517 80 0 0.0 0.0 0.00 0.00 0.00 80 1019.6
20260901034017 80 0 0.0 0.0 0.00 0.00 0.00 80 1019.6
20260901033517 80 0 0.0 0.0 0.00 0.00 0.00 80 1019.6
20260901033017 80 0 0.0 0.0 0.00 0.00 0.00 79 1019.6
20260901032517 80 0 0.0 0.0 0.00 0.00 0.00 79 1019.6
20260901032017 80 0 0.0 0.0 0.00 0.00 0.00 79 1019.7
20260901031517 80 0 0.0 0.0 0.00 0.00 0.00 79 1019.7
20260901031017 80 0 0.0 0.0 0.00 0.00 0.00 78 1019.7
20260901030517 80 0 0.0 0.0 0.00 0.00 0.00 78 1019.7
20260901030017 80 0 0.0 0.0 0.00 0.00 0.00 78 1019.7
20260901025517 80 0 0.0 0.0 0.00 0.00 0.00 78 1019.6
20260901025017 80 0 0.0 0.0 0.00 0.00 0.00 78 1019.7
20260901024517 81 0 0.0 0.0 0.00 0.00 0.00 78 1019.7
20260901024016 81 0 0.0 0.0 0.00 0.00 0.00 77 1019.6
20260901023517 81 0 0.0 0.0 0.00 0.00 0.00 77 1019.6
20260901023017 81 0 0.0 0.0 0.00 0.00 0.00 77 1019.6
20260901022517 81 0 0.0 0.0 0.00 0.00 0.00 76 1019.5
20260901022017 81 0 0.0 0.0 0.00 0.00 0.00 76 1019.5
20260901021518 81 0 0.0 0.0 0.00 0.00 0.00 76 1019.5
20260901021017 82 0 0.0 0.0 0.00 0.00 0.00 75 1019.4
20260901020517 82 0 0.0 0.0 0.00 0.00 0.00 75 1019.4
20260901020017 82 0 0.0 0.0 0.00 0.00 0.00 74 1019.3
20260901015517 82 0 0.0 0.0 0.00 0.00 0.00 74 1019.3
20260901015017 82 0 0.0 0.0 0.00 0.00 0.00 74 1019.2
20260901014517 82 0 0.0 0.0 0.00 0.00 0.00 73 1019.2
20260901014017 82 0 0.0 0.0 0.00 0.00 0.00 73 1019.0
20260901013517 83 0 0.0 0.0 0.00 0.00 0.00 72 1019.0
20260901013017 83 0 0.0 0.0 0.00 0.00 0.00 72 1019.0
20260901012517 83 0 0.0 0.0 0.00 0.00 0.00 71 1018.8
20260901012017 83 0 0.0 0.0 0.00 0.00 0.00 71 1018.7
20260901011517 83 0 0.0 0.0 0.00 0.00 0.00 70 1018.7
20260901011017 83 0 0.0 0.0 0.00 0.00 0.00 69 1018.6
20260901010517 84 0 0.0 0.0 0.00 0.00 0.00 69 1018.6
20260901010017 84 0 0.0 0.0 0.00 0.00 0.00 68 1018.6
20260901005517 84 0 0.0 0.0 0.00 0.00 0.00 68 1018.6
20260901005017 84 0 0.0 0.0 0.00 0.00 0.00 67 1018.5
20260901004517 85 0 0.0 0.0 0.00 0.00 0.00 66 1018.5
20260901004017 85 0 0.0 0.0 0.00 0.00 0.00 66 1018.4
20260901003517 85 0 0.0 0.0 0.00 0.00 0.00 65 1018.3
20260901003017 86 0 0.0 0.0 0.00 0.00 0.00 64 1018.3
20260901002517 86 0 0.0 0.0 0.00 0.00 0.00 63 1018.3
20260901002018 87 0 0.0 0.0 0.00 0.00 0.00 62 1018.3
20260901001517 87 0 0.0 0.0 0.00 0.00 0.00 61 1018.2
20260901001017 88 0 0.0 0.0 0.00 0.00 0.00 60 1018.3
20260901000517 88 0 0.0 0.0 0.00 0.00 0.00 58 1018.3
20260901000017 89 83 0.0 4.0 0.00 0.00 0.00 57 1018.4
20260831235517 89 106 0.0 4.0 0.00 0.00 0.00 56 1018.4
20260831235018 90 109 1.0 4.0 0.00 0.00 0.00 55 1018.4
20260831234517 90 58 0.0 2.0 0.00 0.00 0.00 54 1018.4
20260831234018 90 0 0.0 0.0 0.00 0.00 0.00 53 1018.4
20260831233517 90 56 0.0 5.0 0.00 0.00 0.00 52 1018.4
20260831233017 91 86 2.0 4.0 0.00 0.00 0.00 52 1018.3
20260831232517 91 102 0.0 2.0 0.00 0.00 0.00 51 1018.3
20260831232017 91 80 0.0 6.0 0.00 0.00 0.00 50 1018.3
20260831231517 91 100 0.0 3.0 0.00 0.00 0.00 50 1018.4
20260831231018 91 95 1.0 7.0 0.00 0.00 0.00 50 1018.4
20260831230517 91 61 3.0 4.0 0.00 0.00 0.00 50 1018.5
20260831230017 91 79 0.0 6.0 0.00 0.00 0.00 49 1018.5
20260831225517 91 104 0.0 5.0 0.00 0.00 0.00 49 1018.5
20260831225017 92 66 0.0 4.0 0.00 0.00 0.00 50 1018.5
20260831224517 92 78 0.0 9.0 0.00 0.00 0.00 49 1018.5
20260831224017 92 82 5.0 6.0 0.00 0.00 0.00 49 1018.6
20260831223517 92 83 0.0 7.0 0.00 0.00 0.00 49 1018.5
20260831223017 92 360 2.0 7.0 0.00 0.00 0.00 49 1018.6
20260831222517 92 65 5.0 7.0 0.00 0.00 0.00 48 1018.5
20260831222017 93 78 4.0 6.0 0.00 0.00 0.00 47 1018.5
20260831221517 93 93 3.0 6.0 0.00 0.00 0.00 46 1018.5
20260831221017 93 96 4.0 7.0 0.00 0.00 0.00 46 1018.6
20260831220517 93 90 6.0 2.0 0.00 0.00 0.00 48 1018.5
20260831220017 93 85 1.0 8.0 0.00 0.00 0.00 48 1018.5
20260831215517 94 88 0.0 6.0 0.00 0.00 0.00 48 1018.5
20260831215017 94 99 4.0 5.0 0.00 0.00 0.00 46 1018.5
20260831214517 94 66 3.0 7.0 0.00 0.00 0.00 45 1018.6
20260831214017 95 78 5.0 6.0 0.00 0.00 0.00 44 1018.6
20260831213517 95 69 2.0 9.0 0.00 0.00 0.00 43 1018.6
20260831213017 96 97 2.0 5.0 0.00 0.00 0.00 42 1018.7
20260831212517 96 86 3.0 5.0 0.00 0.00 0.00 42 1018.8
20260831212018 95 82 2.0 8.0 0.00 0.00 0.00 44 1018.8
20260831211517 95 83 1.0 8.0 0.00 0.00 0.00 43 1018.8
20260831211017 96 58 0.0 6.0 0.00 0.00 0.00 43 1018.9
20260831210517 96 73 2.0 9.0 0.00 0.00 0.00 43 1018.9
20260831210018 95 90 0.0 8.0 0.00 0.00 0.00 43 1018.9